Flag for U.S.A. Weather past 2 weeks in Portland, Maine, U.S.A.

Now
71 °F

Partly sunny.


Feels Like: 76 °F
Forecast: 58 / 68 °F
Wind: 3 mph from Northeast

Location: Portland - Portland International Jetport

Current Time: Aug 21, 2014 at 4:34:26 PM

Latest Report: Aug 21, 2014 at 3:51 PM


Visibility: 10 mi

Pressure: 30.09 "Hg

Humidity: 61%

Dew point: 57 °F

Location of PortlandLocation

Historic Weather in Portland — Graph

°F

Portland temperature yesterday

Maximum temperature yesterday: 76 °F (at 12:51 PM)
Minimum temperature yesterday: 52 °F (at 5:51 AM)
Average temperature yesterday: 65 °F

Past Weeks' High & Low Weather Summary

 TemperatureHumidityPressure
High80 °F (Aug 8, 2:51 PM)100% (Aug 12, 4:51 AM)30.15 "Hg (Aug 12, 4:51 AM)
Low51 °F (Aug 19, 4:51 AM)41% (Aug 8, 5:51 PM)29.60 "Hg (Aug 14, 12:51 AM)
Average66 °F76%29.94 "Hg
* Reported Aug 6 2:51 PM — Aug 21 2:51 PM, Portland, Weather by CustomWeather, © 2014

Note: Actual official high and low records may vary slightly from our data, if they occured in-between our weather recording intervals... More about our weather records

Advertising

Portland weather history for previous 24 hours

 ConditionsComfort  
Time TempWeatherWind HumidityBarometerVisibility
2:51 PM
Aug 21
71 °FBroken clouds.No wind61%30.10 "Hg10 mi
1:51 PM69 °FOvercast.5 mph63%30.11 "Hg10 mi
12:51 PM69 °FLight rain. Mostly cloudy.No wind66%30.10 "Hg10 mi
11:51 AM69 °FBroken clouds.No wind63%30.10 "Hg10 mi
10:51 AM70 °FBroken clouds.3 mph61%30.11 "Hg10 mi
9:51 AM69 °FPartly sunny.3 mph66%30.11 "Hg10 mi
8:51 AM66 °FPartly sunny.No wind73%30.11 "Hg10 mi
7:51 AM60 °FPartly sunny.No wind86%30.09 "Hg10 mi
6:51 AM56 °FPassing clouds.5 mph90%30.08 "Hg10 mi
5:51 AM54 °FPassing clouds.5 mph93%30.08 "Hg10 mi
4:51 AM55 °FClear.No wind93%30.07 "Hg10 mi
3:51 AM56 °FClear.3 mph90%30.07 "Hg10 mi
2:51 AM56 °FClear.3 mph90%30.07 "Hg10 mi
1:51 AM56 °FClear.5 mph90%30.07 "Hg10 mi
12:51 AM58 °FClear.No wind90%30.07 "Hg10 mi
11:51 PM
Aug 20
59 °FPassing clouds.No wind90%30.07 "Hg10 mi
10:51 PM60 °FPassing clouds.No wind83%30.07 "Hg10 mi
9:51 PM62 °FPassing clouds.No wind80%30.06 "Hg10 mi
8:51 PM64 °FPassing clouds.3 mph78%30.06 "Hg10 mi
7:51 PM65 °FScattered clouds.5 mph73%30.05 "Hg10 mi
6:51 PM69 °FScattered clouds.6 mph59%30.04 "Hg10 mi
5:51 PM71 °FScattered clouds.6 mph59%30.04 "Hg10 mi
4:51 PM73 °FPartly sunny.8 mph55%30.03 "Hg10 mi
Weather by CustomWeather, © 2014

See weather overviewHow to use our weather pages